Flag for Sweden Weather past 2 weeks in Malmö, Sweden

Now
63 °F

Sunny.


Feels Like: 63 °F
Forecast: 60 / 69 °F
Wind: 13 mph from East

Location: Malmo / Sturup

Current Time: Aug 31, 2015 at 8:42:25 PM

Latest Report: Aug 31, 2015 at 7:50 PM


Visibility: 10 mi

Pressure: 29.83 "Hg

Humidity: 88%

Dew point: 59 °F

Location of MalmöLocation

Historic Weather in Malmö — Graph

°F

Malmö temperature yesterday

Maximum temperature yesterday: 72 °F (at 2:50 PM)
Minimum temperature yesterday: 54 °F (at 12:20 AM)
Average temperature yesterday: 63 °F

Past Weeks' High & Low Weather Summary

 TemperatureHumidityPressure
High75 °F (Aug 20, 12:50 PM)100% (Aug 22, 5:20 AM)30.36 "Hg (Aug 22, 5:20 AM)
Low48 °F (Aug 22, 5:20 AM)29% (Aug 20, 1:50 PM)29.71 "Hg (Aug 25, 1:50 AM)
Average64 °F75%30.05 "Hg
* Reported Aug 16 7:20 PM — Aug 31 7:20 PM, Malmö, Weather by CustomWeather, © 2015

Note: Actual official high and low records may vary slightly from our data, if they occured in-between our weather recording intervals... More about our weather records

Advertising

Malmö weather history for previous 24 hours

 ConditionsComfort  
Time TempWeatherWind HumidityBarometerVisibility
7:20 PM
Mon, Aug 31
64 °FSunny.12 mph83%29.86 "Hg10 mi
6:50 PM64 °FSunny.14 mph83%29.86 "Hg10 mi
6:20 PM66 °FSunny.16 mph78%29.86 "Hg10 mi
5:50 PM68 °FSunny.16 mph78%29.86 "Hg10 mi
5:20 PM66 °FSunny.16 mph78%29.89 "Hg10 mi
4:50 PM66 °FSunny.15 mph78%29.89 "Hg10 mi
4:20 PM66 °FSunny.15 mph78%29.89 "Hg10 mi
3:50 PM66 °FSunny.10 mph78%29.92 "Hg10 mi
3:20 PM64 °FScattered clouds.7 mph83%29.95 "HgN/A
2:50 PM64 °FPassing clouds.9 mph83%29.95 "HgN/A
2:20 PM66 °FPartly sunny.8 mph78%29.98 "HgN/A
1:50 PM66 °FScattered clouds.15 mph78%29.95 "HgN/A
1:20 PM66 °FScattered clouds.12 mph78%29.95 "HgN/A
12:50 PM68 °FSprinkles. Scattered clouds.12 mph73%29.98 "HgN/A
12:20 PM68 °FBroken clouds.12 mph69%29.98 "HgN/A
11:50 AM68 °FPartly sunny.13 mph69%29.98 "HgN/A
11:20 AM68 °FPartly sunny.14 mph69%29.98 "HgN/A
10:50 AM66 °FPartly sunny.12 mph73%30.01 "HgN/A
10:20 AM66 °FPartly sunny.14 mph73%29.98 "HgN/A
9:50 AM64 °FSunny.15 mph83%29.98 "Hg10 mi
9:20 AM64 °FOvercast.12 mph88%30.01 "HgN/A
8:50 AM63 °FBroken clouds.12 mph88%30.01 "HgN/A
8:20 AM61 °FPartly sunny.8 mph94%30.01 "HgN/A
7:50 AM61 °FPartly sunny.7 mph88%30.01 "HgN/A
7:20 AM59 °FBroken clouds.5 mph94%30.04 "HgN/A
6:50 AM59 °FPassing clouds.5 mph94%30.04 "HgN/A
6:20 AM59 °FPassing clouds.5 mph94%30.04 "HgN/A
5:50 AM59 °FPassing clouds.5 mph94%30.04 "HgN/A
5:20 AM59 °FPassing clouds.6 mph94%30.04 "HgN/A
4:50 AM59 °FOvercast.5 mph88%30.04 "HgN/A
4:20 AM61 °FPassing clouds.3 mph83%30.07 "HgN/A
3:50 AM59 °FClear.3 mph94%30.07 "Hg10 mi
3:20 AM59 °FClear.3 mph94%30.07 "Hg10 mi
2:50 AM59 °FClear.5 mph88%30.07 "Hg10 mi
2:20 AM59 °FClear.3 mph88%30.07 "Hg10 mi
1:50 AM59 °FClear.3 mph94%30.07 "Hg10 mi
1:20 AM59 °FClear.3 mph94%30.09 "Hg10 mi
12:50 AM59 °FClear.3 mph94%30.09 "Hg10 mi
12:20 AM59 °FClear.3 mph100%30.09 "Hg10 mi
11:20 PM
Sun, Aug 30
61 °FClear.2 mph94%30.09 "Hg10 mi
10:50 PM61 °FPassing clouds.No wind94%30.09 "HgN/A
10:20 PM61 °FLight rain. Clear.2 mph94%30.09 "HgN/A
9:20 PM63 °FClear.1 mph83%30.12 "Hg10 mi
8:50 PM63 °FSunny.2 mph83%30.09 "Hg10 mi
8:20 PM63 °FSunny.2 mph83%30.09 "Hg10 mi
Weather by CustomWeather, © 2015

See weather overviewHow to use our weather pages